Regional Weather Roundup
Issued by NWS

Home | Current Version | Previous Version | Graphics & Text | Print | Product List | Glossary Off
Versions: 1 2 3 4 5 6 7 8 9 10 11 12 13 14 15 16 17 18 19 20 21 22 23 24 25 26 27 28 29 30 31 32 33 34 35 36 37 38 39 40 41 42 43 44 45 46 47 48 49 50

000
ASUS43 KTOP 010908
RWRKS

WEATHER ROUNDUP FOR KANSAS
NATIONAL WEATHER SERVICE GOODLAND KS
400 AM CDT FRI AUG 01 2014

NOTE:  "FAIR" INDICATES FEW OR NO CLOUDS BELOW 12,000 FEET WITH NO
SIGNIFICANT WEATHER AND/OR OBSTRUCTIONS TO VISIBILITY.

KSZ001>006-013>018-027>032-041>047-011000-
NORTHWEST KANSAS

CITY           SKY/WX    TMP DP  RH WIND       PRES   REMARKS
GOODLAND       CLEAR     60  52  74 W9        30.17S
HAYS           CLEAR     64  55  72 SW8       30.06S
HILL CITY      CLEAR     61  52  72 CALM      30.07F
RUSSELL        CLEAR     64  58  80 S12       30.04F
$$

KSZ061>065-074>080-084>089-011000-
SOUTHWEST KANSAS

CITY           SKY/WX    TMP DP  RH WIND       PRES   REMARKS
DODGE CITY     CLEAR     63  56  78 SW7       30.12F
ELKHART          N/A     62  53  72 W7          N/A
GARDEN CITY    CLEAR     59  56  89 SW5       30.14S
GREAT BEND       N/A     64  57  77 SW9       30.07F
LIBERAL        PTCLDY    63  54  72 SW6       30.17R
PRATT          PTCLDY    61  57  88 SW7       30.11S
$$

KSZ066>073-081>083-090>101-011000-
SOUTHEAST KANSAS

CITY           SKY/WX    TMP DP  RH WIND       PRES   REMARKS
CHANUTE        CLEAR     64  61  90 CALM      30.07R
COFFEYVILLE    CLEAR     64  63  96 S3        30.07R FOG
HUTCHINSON     MOCLDY    63  58  83 S5        30.07F
MEDICINE LODGE   N/A     61  59  93 NE3       30.09S
NEWTON         PTCLDY    66  57  72 SW9       30.11S
PARSONS        PTCLDY    60  59  96 CALM      30.08S FOG
WICHITA INTL   PTCLDY    63  60  90 S5        30.07F
WICHITA JABRA  CLEAR     66  63  90 SW7       30.08S
WICHITA MCCONL CLEAR     65  65 100 S7        30.08S
WINFIELD       CLEAR     64  63  96 CALM      30.09S FOG
$$

KSZ007>012-019>026-033>040-048>060-102>105-011000-
NORTHEAST KANSAS

CITY           SKY/WX    TMP DP  RH WIND       PRES   REMARKS
CONCORDIA      CLEAR     68  55  63 SW8       30.02S
EMPORIA        PTCLDY    64  60  87 SW9       30.07R
LAWRENCE       CLOUDY    67  61  81 CALM      30.08R
MANHATTAN      MOCLDY    67  60  78 CALM      30.03F
MARYSVILLE     CLOUDY    70  55  60 SE6       30.03S
OLATHE IND     CLOUDY    67  60  78 SE5       30.08R
OLATHE EXE     MOCLDY    67  60  78 CALM      30.07R
SALINA         CLEAR     62  55  77 S7        30.05S
TOPEKA BILLARD CLOUDY    67  63  87 NE3       30.08R
TOPEKA FORBES  MOCLDY    66  59  78 E3        30.07R
$$



USA.gov is the U.S. government's official web portal to all federal, state and local government web resources and services.